www.pogodaiklimat.ru

Погода и климат >> Архив погоды >> Канада >> Pelly Bay


ПОГОДА в Pelly Bay

  • Прогноз погоды в Pelly Bay
  • Монитор погоды в Pelly Bay
  • Климат города

АРХИВ ПОГОДЫ в Pelly Bay

Время (UTC), дата Ветер
(напр.,м/с)
 
Видим.   Явления Облачность Т
(С)
Тd
(С)
f
(%)
Тe
(С)
Тes
(С)
Комфортность P
(гПа)
Po
(гПа)
Тmin
(С)
Tmax
(С)
R
(мм)
R24
(мм)
S
(см)
06 14.04 З 12 н/о н/о -17.1 -31 -31 опасность
обморожения
1017.8 974.8 -24.1 -17.0 11
09 14.04 ЮЗ 10 н/о н/о -16.6 -29 -29 1017.8 975.0
12 14.04 З 14 н/о н/о -16.2 -30 -30 1016.8 974.0 -17.5 -17.0
15 14.04 З 11 н/о н/о -15.7 -28 -28 1018.5 975.7
18 14.04 З 8 н/о н/о -14.5 -25 -25 1020.1 977.3 -19.2 -14.5
21 14.04 З 9 н/о н/о -13.4 -24 -24 1021.2 978.4
00 15.04 З 4 н/о н/о -11.9 -19 -19 1022.3 979.6 -17.2 -11.9
03 15.04 З 5 н/о н/о -13.6 -22 -22 1023.2 980.4
06 15.04 ЮЗ 4 н/о н/о -15.2 -23 -23 1023.4 980.5 -17.2 -11.8 132
09 15.04 Ю 4 н/о н/о -14.2 -21 -21 1023.1 980.3
12 15.04 Ю 1 н/о н/о -13.5 -16 -16 1022.3 979.7 -15.3 -11.8
15 15.04 ЮЗ 5 н/о н/о -14.0 -22 -22 1021.0 978.3
18 15.04 ЮЗ 6 н/о н/о -12.1 -21 -21 1020.3 977.7 -15.3 -12.1
21 15.04 ЮЗ 9 н/о н/о -9.5 -19 -19 1019.3 976.9
00 16.04 З 10 н/о н/о -9.4 -19 -19 1019.3 976.9 -15.2 -9.1
03 16.04 З 8 н/о н/о -9.7 -19 -19 1020.5 978.0
06 16.04 С 5 н/о н/о -10.1 -17 -17 1021.4 979.0 -15.2 -9.1 1
09 16.04 С 5 н/о н/о -15.3 -24 -24 1022.8 980.2
12 16.04 С 3 н/о н/о -17.7 -25 -25 1024.6 981.8 -17.7 -9.1
15 16.04 С 1 н/о н/о -15.9 -19 -19 1025.6 982.8
18 16.04 СЗ 6 н/о н/о -15.2 -25 -25 1026.0 983.2 -17.9 -10.1
21 16.04 З 7 н/о н/о -14.5 -25 -25 1026.4 983.4
00 17.04 СЗ 5 н/о н/о -14.5 -23 -23 1027.0 983.9 -17.9 -14.2
03 17.04 З 8 н/о н/о -18.6 -30 -30 1027.1 983.8
06 17.04 З 11 н/о н/о -22.2 -37 -37 опасность
обморожения
1027.0 983.6 -22.2 -10.1 61
09 17.04 З 8 н/о н/о -23.6 -37 -37 опасность
обморожения
1027.8 984.3
12 17.04 З 8 н/о н/о -24.0 -37 -37 опасность
обморожения
1028.9 985.4 -24.1 -10.1
15 17.04 З 8 н/о н/о -23.5 -37 -37 опасность
обморожения
1029.4 985.6
18 17.04 З 8 н/о н/о -20.7 -33 -33 опасность
обморожения
1030.2 986.4 -24.1 -20.7
21 17.04 З 5 н/о н/о -18.3 -28 -28 1030.8 987.0
00 18.04 ЮЗ 7 н/о н/о -18.6 -30 -30 1030.8 987.0 -24.1 -17.9
03 18.04 ЮЗ 6 н/о н/о -19.3 -30 -30 1031.1 987.2
06 18.04 ЮЗ 6 н/о н/о -18.7 -29 -29 1030.1 986.5 -24.1 -17.9 101
09 18.04 ЮЗ 5 н/о н/о -18.4 -28 -28 1029.2 985.7
12 18.04 ЮЗ 5 н/о н/о -17.9 -28 -28 1027.9 984.5 -19.3 -17.9
15 18.04 Ю 5 н/о н/о -15.9 -25 -25 1025.0 981.8
18 18.04 ЮВ 1 н/о н/о -13.8 -16 -16 1022.1 979.1 -20.6 -13.8
21 18.04 штиль 0 н/о н/о -11.6 -12 -12 1018.6 975.9
00 19.04 Ю 3 н/о н/о -10.2 -16 -16 1015.9 973.4 -18.7 -10.1
03 19.04 Ю 15 н/о н/о -9.9 -22 -22 1012.3 970.1
06 19.04 Ю 14 н/о н/о -9.4 -21 -21 1009.3 967.3 -18.7 -9.2 62
09 19.04 Ю 14 н/о н/о -9.3 -21 -21 1007.9 966.1
12 19.04 Ю 11 н/о н/о -8.4 -18 -18 1007.8 966.1 -10.2 -9.2
15 19.04 ЮЗ 13 н/о н/о -7.3 -18 -18 1007.5 965.9
18 19.04 ЮЗ 12 н/о н/о -7.5 -18 -18 1009.1 967.4 -13.8 -6.4
21 19.04 З 12 н/о н/о -9.1 -20 -20 1010.7 968.9
00 20.04 З 13 н/о н/о -13.0 -26 -26 1013.4 971.3 -13.0 -6.4
03 20.04 З 14 н/о н/о -16.0 -30 -30 1015.6 973.4
06 20.04 З 13 н/о н/о -20.3 -35 -35 опасность
обморожения
1019.1 976.5 -20.3 -6.4 82
09 20.04 ЮЗ 5 н/о н/о -21.5 -32 -32 опасность
обморожения
1020.9 978.1
12 20.04 ЮЗ 7 н/о н/о -20.2 -32 -32 опасность
обморожения
1020.8 977.9 -21.6 -6.4
15 20.04 штиль 0 н/о н/о -17.6 -18 -18 1018.4 975.5
18 20.04 Ю 6 н/о н/о -15.0 -25 -25 1015.4 972.6 -21.6 -15.0
21 20.04 ЮЗ 9 н/о н/о -9.5 -19 -19 1014.0 971.5
00 21.04 ЮЗ 7 н/о н/о -7.6 -15 -15 1014.0 971.6 -21.6 -7.6
03 21.04 Ю 4 н/о н/о -7.2 -12 -12 1013.6 971.4

 

Местоположение метеостанции Pelly Bay (Канада): широта 68.43 долгота -89.71 высота над уровнем моря 325 м.

В архиве по умолчанию представлена погода в Pelly Bay за последнюю неделю. Архивные данные за месяц целиком и за предыдущие месяцы, начиная с января 2011 года, Вы можете получить, выбрав интересующий диапазон дат из раскрывающегося списка и нажав кнопку "Ввод!".


*Определитесь, кто Вы:
робот инопланетянин человек

Внимание! Время в таблицах - всемирное. Для получения местного времени необходимо прибавить поправку, которая в Pelly Bay равна -6 ч.

Смотрите также архив погоды в соседних городах и на ближайших метеорологических станциях:

Погода в Kugaaruk climate (Канада) (12 км)
Погода в Shepherd Bay (Канада) (157 км)
Погода в Spence bay (Канада) (198 км)
Погода в Gjoa Haven Climate (Канада) (251 км)
Погода в Wager Bay (Канада) (284 км)
Погода в Hall Beach Climate (Канада) (345 км)
Погода в Back River MAPS (Канада) (392 км)
Погода в Hat Island (Канада) (421 км)
Погода в Rowley Island (Канада) (436 км)
Погода в Baker Lake Climate (Канада) (536 км)

Пояснения к столбцам:

Ветер - указаны скорость ветра в м/с - средняя за 10 мин, порывы в срок и между сроками (в фигурных скобках) и направление, откуда дует ветер: С - северный, СВ - северо-восточный, В - восточный, ЮВ - юго-восточный, Ю - южный, ЮЗ - юго-западный, З - западный, СЗ - северо-западный.
Видимость - горизонтальная дальность видимости в метрах или километрах. При видимости от 1 до 10 км при отсутствии осадков обычно наблюдается дымка, при ухудшении видимости до 1 км и менее - туман. В сухую погоду видимость может ухудшаться дымом, пылью или мглою.
Явления - указаны атмосферные явления, наблюдавшиеся в срок или в последний час перед сроком; фигурными скобками обозначены явления, наблюдавшиеся между сроками (за 1-3 часа до срока); квадратными скобками обозначены град или гололедные отложения с указанием их диаметра в мм.
Облачность - указаны через наклонную черту общая и нижняя облачность в баллах и высота нижней границы облаков в метрах; квадратными скобками обозначены формы облаков: Ci - перистые, Cs - перисто-слоистые, Cc - перисто-кучевые, Ac - высококучевые, As - высокослоистые, Sc - слоисто-кучевые, Ns - слоисто-дождевые, Cu - кучевые, Cb - кучево-дождевые. Подробнее классификацию облаков см. в Атласе облаков (PDF).
T - Температура воздуха - температура, измеренная на высоте 2 м над землей.
Td - Температура точки росы - температура, при понижении до которой содержащийся в воздухе водяной пар достигнет насыщения.
f - Относительная влажность воздуха - влажноcть воздуха, измеренная на высоте 2 м над землей.
Te - Эффективная температура - температура, которую ощущает одетый по сезону человек в тени. Характеристика душности погоды. При расчете учитывается влияние влажности воздуха и скорости ветра на теплоощущения человека.
Tes - Эффективная температура на солнце - температура, которую ощущает человек, с поправкой на солнечный нагрев. Характеристика знойности погоды. Зависит от высоты солнца над горизонтом, облачности и скорости ветра. Ночью, в пасмурную погоду, а также при ветре 12 м/с и более поправка равна нулю.
P - Атмосферное давление - приведенное к уровню моря атмосферное давление.
Po - Атмосферное давление - измеренное на уровне метеостанции атмосферное давление.
Tmin - Минимальная температура - минимум температуры воздуха на высоте 2 м над землей.
Tmax - Максимальная температура - максимум температуры воздуха на высоте 2 м над землей.
R - Количество осадков - Количество выпавших осадков за период времени, мм. При наведении курсора мыши на число - период времени, за который выпало указанное количество осадков.
R24 - Количество осадков - Количество выпавших осадков за 24 часа, мм.
S - Снежный покров - Высота снежного покрова, см. При наведении курсора мыши на число - состояние снежного покрова и степень покрытия местности в баллах.